Weather in Kayseri

Turkey     38°43′18″N   35°29′14″E
temp.,
°C
wind,
m/s
gust,
m/s
humid.,
%
clouds,
%
prec.,
mm/h
press.,
hPa
HPBL,
m
17 april, sat
sat1700:00+13ese22538 0.0 101713
03:00+11ene125691 0.0 101712
06:00+10e115696 0.0 101811
09:00+16n1142100 0.0 1019423
12:00+18ne1238100 0.0 1017791
15:00+21w453199 0.0 10161555
18:00+19wnw3645100 0.0 1016224
21:00+15se1156100 0.1 101711
18 april, sun
sun1800:00+15se1155100 0.0 101712
03:00+14se1155100 0.0 101712
06:00+14w1152100 0.0 101712
09:00+14s1167100 0.8 102175
12:00+19w61142100 0.1 10202008
15:00+21w10153685 0.1 10182435
18:00+20w5839100 0.0 1018547
21:00+16ssw0154100 0.0 101911
19 april, mon
mon1900:00+15ene1157100 0.0 101810
03:00+14ne1157100 0.0 101711
06:00+14ne2255100 0.0 101612
09:00+20se2337100 0.0 1014202
12:00+25s182291 0.0 10121685
15:00+26s61322100 0.0 10103324
18:00+23sse6831100 0.0 1009246
21:00+20sse5738100 0.0 1009121
20 april, tue
tue2000:00+19sse5740100 0.0 1008145
03:00+19sse4739100 0.0 1006134
06:00+19sse61039100 0.0 1004196
09:00+20sw2444100 0.0 1005200
12:00+19nw65445 0.1 10071112
15:00+21wnw87365 0.1 10071576
18:00+18nw553683 0.1 10091144
21:00+13nne223613 0.1 101235
21 april, wed
wed2100:00+11wnw113919 0.0 101210
03:00+11wsw223995 0.0 101316
06:00+9sw11472 0.0 101310
09:00+13wnw22380 0.0 1015708
12:00+17nw33305 0.0 10141673
15:00+19nw5526100 0.0 10132363
18:00+18nw452964 0.0 10131797
21:00+13wsw22455 0.0 101713